Location: Peterborough
(44.3091°N, 78.3197°W)
Time: 05:48:53
(UTC-04:00)

A-11 Canister half - Pass Details

Date: 24 March 2023
Orbit: 1513 x 1686 km, 47.2° (Epoch: 04 June)

Event Time Altitude Azimuth Distance (km) Brightness Sun altitude
Rises 23:21:21 0° 241° (WSW) 4,813 11.7 -37.0°
Reaches altitude 10° 23:24:24 10° 240° (WSW) 3,850 11.1 -37.3°
Enters shadow 23:30:39 46° 234° (SW) 2,113 9.5 -38.0°
Exits shadow 23:46:15 - 70° (ENE) 4,496 11.3 -39.5°
Sets 23:47:41 0° 70° (ENE) 4,945 11.6 -39.7°
